Terug naar catalogus

SPOT 2

ActiefWetenschapPO
NORAD 20436·PAYLOAD·🇫🇷 France

Gelanceerd Jan 22, 1990 vanaf Guiana Space Centre

Loading…

Volgende Passages (komende 24 uur)

TLE

VersSource: Space-Track

Epoch: Sep 14, 2026, 10:33 UTC

1 20436U 90005A   26257.43966173  .00000780  00000-0  11292-3 0  9993
2 20436  98.7245  61.2463 0128830 166.9975 193.4606 14.74005637928475

Volg SPOT 2 in realtime met AllMySat

Download on the App Store